CDT,Max TemperatureF,Mean TemperatureF,Min TemperatureF,Max Dew PointF,MeanDew PointF,Min DewpointF,Max Humidity, Mean Humidity, Min Humidity, Max Sea Level PressureIn, Mean Sea Level PressureIn, Min Sea Level PressureIn, Max VisibilityMiles, Mean VisibilityMiles, Min VisibilityMiles, Max Wind SpeedMPH, Mean Wind SpeedMPH, Max Gust SpeedMPH,PrecipitationIn, CloudCover, Events, WindDirDegrees
2014-3-1,77,69,61,63,60,58,90,75,60,29.99,29.93,29.87,10,10,10,20,12,23,0.00,5,,182
2014-3-2,69,45,21,63,36,16,92,85,77,30.27,30.05,29.93,10,6,0,32,13,41,1.19,8,Fog-Rain-Snow-Thunderstorm,314
2014-3-3,26,22,18,22,16,12,84,79,73,30.43,30.36,30.28,10,9,5,22,10,28,T,8,Rain-Snow,349
2014-3-4,36,31,26,31,26,21,92,82,72,30.32,30.16,30.05,10,6,0,16,6,21,0.00,6,Fog,60
2014-3-5,47,38,29,38,33,27,92,79,65,30.15,30.09,30.04,10,8,3,16,3,17,0.00,5,,83
2014-3-6,59,49,38,37,34,30,79,58,36,30.21,30.13,30.06,10,10,10,17,7,24,0.02,3,Rain,326
2014-3-7,67,50,33,41,36,31,89,61,32,30.07,29.98,29.89,10,9,4,18,8,24,0.00,0,,161
2014-3-8,58,49,40,56,48,37,100,86,71,30.26,30.08,29.92,10,7,2,17,8,22,0.09,7,Rain,294
2014-3-9,56,47,38,45,40,35,92,79,66,30.33,30.26,30.20,10,7,4,14,5,18,T,6,Rain,337
2014-3-10,74,57,40,53,43,37,96,65,33,30.20,30.09,29.89,10,5,0,14,6,17,0.00,1,Fog,194
2014-3-11,76,66,55,55,54,52,93,70,46,29.87,29.70,29.55,10,9,5,20,10,26,0.00,2,,195
2014-3-12,63,52,41,54,31,19,78,49,20,30.25,30.05,29.72,10,10,10,29,15,38,0.00,0,,345
2014-3-13,66,50,33,36,29,24,82,48,22,30.33,30.23,30.10,10,10,10,10,3,,0.00,0,,205
2014-3-14,69,57,44,52,45,33,80,65,50,30.12,30.06,29.99,10,10,10,21,9,26,0.00,6,,173
2014-3-15,68,62,56,61,58,52,93,80,67,29.99,29.83,29.70,10,8,2,28,9,36,0.33,8,Rain-Thunderstorm,156
2014-3-16,57,49,41,56,45,32,93,79,65,30.01,29.83,29.71,10,10,9,30,14,38,T,7,Rain,308
2014-3-17,61,51,40,38,34,31,76,55,33,30.00,29.90,29.78,10,10,10,18,6,24,0.00,4,,318
2014-3-18,77,61,44,53,44,37,83,58,33,29.82,29.72,29.65,10,10,10,29,16,38,0.00,0,,181
2014-3-19,66,57,48,55,38,30,73,53,32,30.19,30.07,29.86,10,10,10,17,8,23,0.00,3,,329
2014-3-20,71,57,42,38,31,22,67,42,16,30.23,30.14,30.03,10,10,9,13,4,16,0.00,0,,126
2014-3-21,79,63,47,57,47,31,73,55,36,30.02,29.93,29.83,10,10,10,23,11,26,0.00,1,,180
2014-3-22,75,68,60,63,59,51,93,79,64,30.04,29.98,29.91,10,8,1,13,6,15,T,6,Rain,177
2014-3-23,60,52,44,50,44,40,89,72,55,30.30,30.19,30.02,10,10,6,24,10,32,0.01,7,Rain,18
2014-3-24,67,54,40,41,34,31,89,59,28,30.24,30.14,30.01,10,10,9,12,5,14,0.00,0,,38
2014-3-25,64,53,42,36,28,20,70,46,21,30.37,30.26,30.14,10,10,10,18,8,26,0.00,0,,16
2014-3-26,64,52,40,44,34,27,71,51,30,30.23,30.13,29.99,10,10,10,26,14,38,T,5,Rain,142
2014-3-27,70,62,54,65,58,45,93,85,77,29.99,29.83,29.73,10,10,5,23,15,29,0.01,8,Rain,174
2014-3-28,83,69,54,65,61,49,87,67,46,29.97,29.81,29.72,10,9,1,37,8,51,0.65,6,Rain-Thunderstorm,217
2014-3-29,74,61,48,47,41,33,86,55,23,30.25,30.16,30.01,10,9,2,18,7,26,0.00,1,,348
2014-3-30,76,60,44,44,39,36,76,52,27,30.23,30.15,30.02,10,8,2,18,9,28,0.00,0,,155
2014-3-31,78,66,53,57,52,41,83,63,43,30.03,29.96,29.88,10,10,10,23,13,28,0.00,3,,183